Location: Marion Hill
(40.7303°N, 80.2959°W)
Time: 17:52:23
(UTC+00:00)

Cosmos 1892 - Pass Details

Date: 29 October 2020
Orbit: 504 x 523 km, 82.5° (Epoch: 28 November)

Event Time Altitude Azimuth Distance (km) Brightness Sun altitude
Rises 23:15:43 0° 358° (N) 2,664 6.3 -11.0°
Reaches altitude 10° 23:17:55 10° 4° (N) 1,771 5.3 -11.4°
Maximum altitude 23:21:42 49° 80° (E) 686 2.9 -12.1°
Drops below altitude 10° 23:25:27 10° 155° (SSE) 1,756 5.2 -12.8°
Sets 23:27:37 0° 161° (SSE) 2,638 6.2 -13.2°
